< < Back
Terminal Aerodrome Forecast


Current Version              Previous Versions:   1  2  3  4  5  6  7  8  9  

Terminal Aerodrome Forecast

019
FTUS42 KGSP 220500
TAFAND
TAF
KAND 220522Z 2206/2306 34005KT P6SM BKN090
     FM220900 35006KT P6SM SCT080
     FM221400 03009KT P6SM SCT060
     FM230000 05005KT P6SM SCT250=

Latest METAR

012
SAUS70 KWBC 230000 RRD
MTRAND
METAR KAND 222356Z AUTO 13003KT 10SM CLR 20/15 A3008 RMK AO2 SLP179
T02000150 10261 20200 53014


USA.gov is the U.S. government's official web portal to all federal, state and local government web resources and services.